Change the Weather History Date:

Wednesday, September 26, 2012

  Actual Average Record
Temperature  
Mean Temperature 67 °F 61 °F  
Max Temperature 74 °F 69 °F 95 °F (1881)
Min Temperature 59 °F 54 °F 34 °F (1879)
Degree Days  
Heating Degree Days 0 5  
Month to date heating degree days 42 61  
Since 1 July heating degree days 42 74  
Cooling Degree Days 2 1  
Month to date cooling degree days 72 76  
Year to date cooling degree days 899 735  
Growing Degree Days 16 (Base 50)    
Moisture  
Dew Point 59 °F    
Average Humidity 76    
Maximum Humidity 87    
Minimum Humidity 64    
Precipitation  
Precipitation T in 0.13 in 2.12 in (1918)
Month to date precipitation 3.08 2.94  
Year to date precipitation 26.15 31.56  
Snow  
Snow 0.00 in 0.00 in 0.00 in (2002)
Month to date snowfall 0.0 0.0  
Since 1 July snowfall 0.0 0.0  
Since 1 September snowfall 0.0 0.0  
Snow Depth 0.00 in    
Sea Level Pressure  
Sea Level Pressure 30.06 in    
Wind  
Wind Speed 12 mph (SSW)    
Max Wind Speed 21 mph    
Max Gust Speed 26 mph    
Visibility 10 miles    
Events      
T = Trace of Precipitation, MM = Missing Value Source: NWS Daily Summary

Daily Weather History Graph

Daily Weather History Graph

Search for Another Location

Airport or City:

Trip Planner

Search our weather history database for the weather conditions in past years. The results will help you decide how hot, cold, wet, or windy it might be!

Date:

Astronomy

Sep. 26, 2012 Rise Set
Actual Time 6:36 AM EDT 6:33 PM EDT
Civil Twilight 6:08 AM EDT 7:01 PM EDT
Nautical Twilight 5:35 AM EDT 7:34 PM EDT
Astronomical Twilight 5:02 AM EDT 8:07 PM EDT
Moon 4:34 PM EDT (9/26) 2:55 AM EDT (9/26)
Length of Visible Light 12h 53m
Length of Day
11h 57m
Waxing Gibbous, 88% of the Moon is Illuminated
Sep 26
Waxing Gibbous
Sep 29
Full
Oct 8
Last Quarter
Oct 15
New
Oct 21
First Quarter

Hourly Weather History & Observations

Time (EDT) Temp. Dew Point Humidity Pressure Visibility Wind Dir Wind Speed Gust Speed Precip Events Conditions
12:54 AM 60.1 °F 53.1 °F 78% 30.14 in 10.0 mi SSW 9.2 mph - N/A   Clear
1:54 AM 61.0 °F 54.0 °F 78% 30.14 in 10.0 mi SSW 12.7 mph - N/A   Scattered Clouds
2:54 AM 60.1 °F 55.0 °F 83% 30.13 in 10.0 mi SSW 11.5 mph - N/A   Scattered Clouds
3:54 AM 60.1 °F 55.0 °F 83% 30.12 in 10.0 mi SSW 10.4 mph - N/A   Scattered Clouds
4:54 AM 60.1 °F 55.0 °F 83% 30.12 in 10.0 mi South 9.2 mph - N/A   Scattered Clouds
5:54 AM 62.1 °F 55.9 °F 80% 30.11 in 10.0 mi SSW 10.4 mph - N/A   Overcast
6:54 AM 62.1 °F 55.9 °F 80% 30.12 in 10.0 mi South 9.2 mph - N/A   Overcast
7:54 AM 62.1 °F 57.0 °F 84% 30.11 in 10.0 mi South 9.2 mph - 0.00 in   Overcast
8:54 AM 64.0 °F 57.9 °F 80% 30.11 in 10.0 mi SSW 9.2 mph - 0.00 in   Mostly Cloudy
9:54 AM 68.0 °F 59.0 °F 73% 30.09 in 10.0 mi South 13.8 mph - N/A   Overcast
10:54 AM 70.0 °F 57.9 °F 65% 30.08 in 10.0 mi SSW 16.1 mph - N/A   Overcast
11:54 AM 73.0 °F 60.1 °F 64% 30.06 in 10.0 mi SSW 15.0 mph 24.2 mph N/A   Overcast
12:54 PM 70.0 °F 60.1 °F 71% 30.04 in 10.0 mi SSW 13.8 mph - N/A   Overcast
1:54 PM 72.0 °F 61.0 °F 68% 30.03 in 10.0 mi SSW 16.1 mph 26.5 mph N/A   Overcast
2:54 PM 72.0 °F 61.0 °F 68% 30.01 in 10.0 mi SSW 13.8 mph 23.0 mph N/A   Mostly Cloudy
3:54 PM 71.1 °F 61.0 °F 70% 30.01 in 10.0 mi SSW 13.8 mph - 0.00 in   Mostly Cloudy
4:54 PM 71.1 °F 61.0 °F 70% 30.00 in 10.0 mi SSW 13.8 mph - N/A   Overcast
5:54 PM 70.0 °F 61.0 °F 73% 30.01 in 10.0 mi SW 13.8 mph - N/A   Overcast
6:54 PM 70.0 °F 61.0 °F 73% 30.01 in 10.0 mi SW 10.4 mph - N/A   Mostly Cloudy
7:54 PM 70.0 °F 61.0 °F 73% 30.02 in 10.0 mi SW 17.3 mph - N/A   Overcast
8:54 PM 69.1 °F 61.0 °F 75% 30.02 in 10.0 mi SW 13.8 mph - N/A   Overcast
9:54 PM 68.0 °F 62.1 °F 81% 30.02 in 10.0 mi SW 9.2 mph - N/A   Mostly Cloudy
10:54 PM 68.0 °F 62.1 °F 81% 30.02 in 10.0 mi SW 9.2 mph - N/A   Overcast
11:54 PM 66.9 °F 62.1 °F 84% 30.01 in 10.0 mi SW 9.2 mph - N/A   Overcast